Time,TemperatureF,DewpointF,PressureIn,WindDirection,WindDirectionDegrees,WindSpeedMPH,WindSpeedGustMPH,Humidity,HourlyPrecipIn,Conditions,Clouds,dailyrainin,SoftwareType,DateUTC
2013-03-23 00:00:00,36.8,22.6,29.97,SSW,192,0.0,0.0,56,0.00,,---,0.00,VWS V14.01,2013-03-23 04:00:00,
2013-03-23 00:05:00,37.0,24.0,29.97,SSW,192,0.0,1.0,59,0.00,,---,0.00,VWS V14.01,2013-03-23 04:05:00,
2013-03-23 00:10:00,37.1,24.1,29.97,SSW,192,0.0,0.0,59,0.00,,---,0.00,VWS V14.01,2013-03-23 04:10:00,
2013-03-23 00:15:00,37.1,24.1,29.97,SSW,192,0.0,0.0,59,0.00,,---,0.00,VWS V14.01,2013-03-23 04:15:00,
2013-03-23 00:21:00,37.3,25.5,29.97,SSW,192,0.0,0.0,62,0.00,,---,0.00,VWS V14.01,2013-03-23 04:21:00,
2013-03-23 00:26:00,37.5,22.8,29.97,SSW,192,0.0,0.0,55,0.00,,---,0.00,VWS V14.01,2013-03-23 04:26:00,
2013-03-23 00:31:00,37.9,23.6,29.97,SSW,192,0.0,1.0,56,0.00,,---,0.00,VWS V14.01,2013-03-23 04:31:00,
2013-03-23 00:36:00,38.4,23.2,29.97,SSW,192,0.0,2.0,54,0.00,,---,0.00,VWS V14.01,2013-03-23 04:36:00,
2013-03-23 00:41:00,38.6,23.8,29.97,SSW,192,0.0,0.0,55,0.00,,---,0.00,VWS V14.01,2013-03-23 04:41:00,
2013-03-23 00:46:00,38.4,25.3,29.96,SSW,192,0.0,0.0,59,0.00,,---,0.00,VWS V14.01,2013-03-23 04:46:00,
2013-03-23 00:51:00,38.2,24.7,29.96,SSW,192,0.0,1.0,58,0.00,,---,0.00,VWS V14.01,2013-03-23 04:51:00,
2013-03-23 00:56:00,38.0,25.4,29.96,SSW,192,0.0,1.0,60,0.00,,---,0.00,VWS V14.01,2013-03-23 04:56:00,
2013-03-23 01:02:00,38.0,28.4,29.96,SSW,192,0.0,0.0,68,0.00,,---,0.00,VWS V14.01,2013-03-23 05:02:00,
2013-03-23 01:07:00,37.9,28.6,29.96,SSW,192,0.0,0.0,69,0.00,,---,0.00,VWS V14.01,2013-03-23 05:07:00,
2013-03-23 01:12:00,37.8,27.8,29.96,SSW,192,0.0,1.0,67,0.00,,---,0.00,VWS V14.01,2013-03-23 05:12:00,
2013-03-23 01:17:00,38.3,24.4,29.96,SSW,192,0.0,2.0,57,0.00,,---,0.00,VWS V14.01,2013-03-23 05:17:00,
2013-03-23 01:22:00,39.2,23.1,29.96,SSW,192,1.0,1.0,52,0.00,,---,0.00,VWS V14.01,2013-03-23 05:22:00,
2013-03-23 01:27:00,39.8,23.6,29.96,SSW,192,0.0,1.0,52,0.00,,---,0.00,VWS V14.01,2013-03-23 05:27:00,
2013-03-23 01:32:00,39.8,24.5,29.95,SSW,192,0.0,0.0,54,0.00,,---,0.00,VWS V14.01,2013-03-23 05:32:00,
2013-03-23 01:37:00,39.7,23.5,29.95,SSW,192,0.0,1.0,52,0.00,,---,0.00,VWS V14.01,2013-03-23 05:37:00,
2013-03-23 01:43:00,39.7,24.4,29.95,SSW,192,0.0,1.0,54,0.00,,---,0.00,VWS V14.01,2013-03-23 05:43:00,
2013-03-23 01:48:00,39.7,24.9,29.96,SSW,192,0.0,1.0,55,0.00,,---,0.00,VWS V14.01,2013-03-23 05:48:00,
2013-03-23 01:53:00,39.9,24.2,29.96,SSW,192,0.0,1.0,53,0.00,,---,0.00,VWS V14.01,2013-03-23 05:53:00,
2013-03-23 01:58:00,40.1,24.8,29.96,SSW,192,0.0,1.0,54,0.00,,---,0.00,VWS V14.01,2013-03-23 05:58:00,
2013-03-23 02:03:00,40.3,23.6,29.95,SSW,192,0.0,1.0,51,0.00,,---,0.00,VWS V14.01,2013-03-23 06:03:00,
2013-03-23 02:08:00,40.5,23.8,29.95,SSW,192,0.0,1.0,51,0.00,,---,0.00,VWS V14.01,2013-03-23 06:08:00,
2013-03-23 02:13:00,40.5,26.0,29.95,SSW,192,0.0,0.0,56,0.00,,---,0.00,VWS V14.01,2013-03-23 06:13:00,
2013-03-23 02:18:00,40.3,26.7,29.95,SSW,192,0.0,1.0,58,0.00,,---,0.00,VWS V14.01,2013-03-23 06:18:00,
2013-03-23 02:23:00,40.2,25.8,29.95,SSW,192,0.0,0.0,56,0.00,,---,0.00,VWS V14.01,2013-03-23 06:23:00,
2013-03-23 02:28:00,40.3,26.7,29.95,SSW,192,0.0,1.0,58,0.00,,---,0.00,VWS V14.01,2013-03-23 06:28:00,
2013-03-23 02:33:00,40.2,28.2,29.95,SSW,192,0.0,0.0,62,0.00,,---,0.00,VWS V14.01,2013-03-23 06:33:00,
2013-03-23 02:38:00,39.8,27.9,29.95,SSW,192,0.0,0.0,62,0.00,,---,0.00,VWS V14.01,2013-03-23 06:38:00,
2013-03-23 02:43:00,39.3,28.5,29.95,SSW,192,0.0,0.0,65,0.00,,---,0.00,VWS V14.01,2013-03-23 06:43:00,
2013-03-23 02:48:00,38.9,29.2,29.95,SSW,192,0.0,0.0,68,0.00,,---,0.00,VWS V14.01,2013-03-23 06:48:00,
2013-03-23 02:53:00,38.6,30.0,29.95,SSW,192,0.0,0.0,71,0.00,,---,0.00,VWS V14.01,2013-03-23 06:53:00,
2013-03-23 02:58:00,38.3,30.1,29.95,SSW,192,0.0,0.0,72,0.00,,---,0.00,VWS V14.01,2013-03-23 06:58:00,
2013-03-23 03:03:00,38.3,29.7,29.95,SSW,192,0.0,0.0,71,0.00,,---,0.00,VWS V14.01,2013-03-23 07:03:00,
2013-03-23 03:09:00,38.3,29.7,29.95,SSW,192,0.0,0.0,71,0.00,,---,0.00,VWS V14.01,2013-03-23 07:09:00,
2013-03-23 03:14:00,38.4,29.8,29.95,SSW,192,0.0,0.0,71,0.00,,---,0.00,VWS V14.01,2013-03-23 07:14:00,
2013-03-23 03:19:00,38.3,29.7,29.95,SSW,192,0.0,0.0,71,0.00,,---,0.00,VWS V14.01,2013-03-23 07:19:00,
2013-03-23 03:24:00,38.1,29.9,29.95,SSW,192,0.0,0.0,72,0.00,,---,0.00,VWS V14.01,2013-03-23 07:24:00,
2013-03-23 03:29:00,37.8,29.6,29.95,SSW,192,1.0,2.0,72,0.00,,---,0.00,VWS V14.01,2013-03-23 07:29:00,
2013-03-23 03:34:00,37.7,29.2,29.95,SSW,192,0.0,2.0,71,0.00,,---,0.00,VWS V14.01,2013-03-23 07:34:00,
2013-03-23 03:39:00,37.6,29.1,29.95,SSW,192,0.0,2.0,71,0.00,,---,0.00,VWS V14.01,2013-03-23 07:39:00,
2013-03-23 03:44:00,37.6,29.4,29.95,SSW,192,0.0,0.0,72,0.00,,---,0.00,VWS V14.01,2013-03-23 07:44:00,
2013-03-23 03:49:00,37.7,28.8,29.95,SSW,192,0.0,0.0,70,0.00,,---,0.00,VWS V14.01,2013-03-23 07:49:00,
2013-03-23 03:54:00,37.7,28.1,29.95,SSW,192,0.0,0.0,68,0.00,,---,0.00,VWS V14.01,2013-03-23 07:54:00,
2013-03-23 03:59:00,37.8,28.6,29.93,SSW,192,0.0,0.0,69,0.00,,---,0.00,VWS V14.01,2013-03-23 07:59:00,
2013-03-23 04:04:00,37.7,28.1,29.93,SSW,192,0.0,0.0,68,0.00,,---,0.00,VWS V14.01,2013-03-23 08:04:00,
2013-03-23 04:10:00,37.7,28.5,29.93,SSW,192,0.0,0.0,69,0.00,,---,0.00,VWS V14.01,2013-03-23 08:10:00,
2013-03-23 04:15:00,37.6,28.4,29.94,SSW,192,0.0,0.0,69,0.00,,---,0.00,VWS V14.01,2013-03-23 08:15:00,
2013-03-23 04:20:00,37.6,28.4,29.94,SSW,192,0.0,1.0,69,0.00,,---,0.00,VWS V14.01,2013-03-23 08:20:00,
2013-03-23 04:25:00,37.6,28.7,29.94,SSW,192,0.0,0.0,70,0.00,,---,0.00,VWS V14.01,2013-03-23 08:25:00,
2013-03-23 04:30:00,37.8,28.9,29.95,SSW,192,0.0,0.0,70,0.00,,---,0.00,VWS V14.01,2013-03-23 08:30:00,
2013-03-23 04:35:00,37.9,28.3,29.95,SSW,192,0.0,0.0,68,0.00,,---,0.00,VWS V14.01,2013-03-23 08:35:00,
2013-03-23 04:40:00,37.9,29.0,29.95,SSW,192,0.0,0.0,70,0.00,,---,0.00,VWS V14.01,2013-03-23 08:40:00,
2013-03-23 04:45:00,37.8,28.9,29.93,SSW,192,0.0,0.0,70,0.00,,---,0.00,VWS V14.01,2013-03-23 08:45:00,
2013-03-23 04:50:00,37.5,29.0,29.93,SSW,192,0.0,0.0,71,0.00,,---,0.00,VWS V14.01,2013-03-23 08:50:00,
2013-03-23 04:55:00,37.2,29.0,29.93,SSW,192,0.0,0.0,72,0.00,,---,0.00,VWS V14.01,2013-03-23 08:55:00,
2013-03-23 05:00:00,36.9,28.7,29.94,SSW,192,0.0,0.0,72,0.00,,---,0.00,VWS V14.01,2013-03-23 09:00:00,
2013-03-23 05:05:00,36.5,28.4,29.94,SSW,192,0.0,0.0,72,0.00,,---,0.00,VWS V14.01,2013-03-23 09:05:00,
2013-03-23 05:10:00,36.2,27.4,29.94,SSW,192,0.0,0.0,70,0.00,,---,0.00,VWS V14.01,2013-03-23 09:10:00,
2013-03-23 05:16:00,36.0,27.2,29.94,SSW,192,0.0,0.0,70,0.00,,---,0.00,VWS V14.01,2013-03-23 09:16:00,
2013-03-23 05:21:00,36.1,28.0,29.94,SSW,192,0.0,0.0,72,0.00,,---,0.00,VWS V14.01,2013-03-23 09:21:00,
2013-03-23 05:26:00,36.1,28.3,29.94,SSW,192,0.0,0.0,73,0.00,,---,0.00,VWS V14.01,2013-03-23 09:26:00,
2013-03-23 05:31:00,36.0,27.5,29.93,SSW,192,0.0,0.0,71,0.00,,---,0.00,VWS V14.01,2013-03-23 09:31:00,
2013-03-23 05:36:00,35.9,27.1,29.93,SSW,192,0.0,1.0,70,0.00,,---,0.00,VWS V14.01,2013-03-23 09:36:00,
2013-03-23 05:41:00,35.9,28.1,29.93,SSW,192,0.0,1.0,73,0.00,,---,0.00,VWS V14.01,2013-03-23 09:41:00,
2013-03-23 05:46:00,35.8,27.3,29.93,SSW,192,0.0,1.0,71,0.00,,---,0.00,VWS V14.01,2013-03-23 09:46:00,
2013-03-23 05:52:00,35.7,26.9,29.93,SSW,192,1.0,2.0,70,0.00,,---,0.00,VWS V14.01,2013-03-23 09:52:00,
2013-03-23 05:57:00,35.7,27.6,29.93,SSW,192,1.0,2.0,72,0.00,,---,0.00,VWS V14.01,2013-03-23 09:57:00,
2013-03-23 06:02:00,35.9,26.7,29.92,SSW,192,2.0,3.0,69,0.00,,---,0.00,VWS V14.01,2013-03-23 10:02:00,
2013-03-23 06:07:00,36.3,27.5,29.92,SSW,192,1.0,3.0,70,0.00,,---,0.00,VWS V14.01,2013-03-23 10:07:00,
2013-03-23 06:12:00,36.3,27.8,29.92,SSW,192,0.0,0.0,71,0.00,,---,0.00,VWS V14.01,2013-03-23 10:12:00,
2013-03-23 06:17:00,36.0,27.9,29.93,SSW,192,0.0,0.0,72,0.00,,---,0.00,VWS V14.01,2013-03-23 10:17:00,
2013-03-23 06:22:00,35.8,28.0,29.93,SSW,192,0.0,0.0,73,0.00,,---,0.00,VWS V14.01,2013-03-23 10:22:00,
2013-03-23 06:27:00,35.8,27.7,29.93,SSW,192,0.0,0.0,72,0.00,,---,0.00,VWS V14.01,2013-03-23 10:27:00,
2013-03-23 06:32:00,35.9,27.1,29.94,SSW,192,0.0,0.0,70,0.00,,---,0.00,VWS V14.01,2013-03-23 10:32:00,
2013-03-23 06:37:00,36.1,26.9,29.94,SSW,192,0.0,0.0,69,0.00,,---,0.00,VWS V14.01,2013-03-23 10:37:00,
2013-03-23 06:42:00,36.2,27.4,29.94,SSW,192,0.0,0.0,70,0.00,,---,0.00,VWS V14.01,2013-03-23 10:42:00,
2013-03-23 06:47:00,36.4,28.2,29.96,SSW,192,0.0,0.0,72,0.00,,---,0.00,VWS V14.01,2013-03-23 10:47:00,
2013-03-23 06:52:00,36.6,28.8,29.96,SSW,192,0.0,0.0,73,0.00,,---,0.00,VWS V14.01,2013-03-23 10:52:00,
2013-03-23 06:58:00,36.7,29.5,29.96,SSW,192,0.0,0.0,75,0.00,,---,0.00,VWS V14.01,2013-03-23 10:58:00,
2013-03-23 07:03:00,36.7,29.2,29.96,SSW,192,0.0,0.0,74,0.00,,---,0.00,VWS V14.01,2013-03-23 11:03:00,
2013-03-23 07:08:00,36.7,28.9,29.96,SSW,192,0.0,0.0,73,0.00,,---,0.00,VWS V14.01,2013-03-23 11:08:00,
2013-03-23 07:13:00,36.8,28.6,29.96,SSW,192,0.0,0.0,72,0.00,,---,0.00,VWS V14.01,2013-03-23 11:13:00,
2013-03-23 07:18:00,36.7,29.5,29.95,SSW,192,0.0,0.0,75,0.00,,---,0.00,VWS V14.01,2013-03-23 11:18:00,
2013-03-23 07:23:00,36.6,29.1,29.95,SSW,192,2.0,2.0,74,0.00,,---,0.00,VWS V14.01,2013-03-23 11:23:00,
2013-03-23 07:28:00,36.7,28.9,29.95,SSW,192,0.0,2.0,73,0.00,,---,0.00,VWS V14.01,2013-03-23 11:28:00,
2013-03-23 07:33:00,36.8,29.0,29.95,SSW,192,0.0,0.0,73,0.00,,---,0.00,VWS V14.01,2013-03-23 11:33:00,
2013-03-23 07:38:00,36.9,29.1,29.95,SSW,192,0.0,0.0,73,0.00,,---,0.00,VWS V14.01,2013-03-23 11:38:00,
2013-03-23 07:43:00,37.0,29.5,29.95,SSW,192,0.0,0.0,74,0.00,,---,0.00,VWS V14.01,2013-03-23 11:43:00,
2013-03-23 07:48:00,37.2,28.7,29.96,SSW,192,0.0,0.0,71,0.00,,---,0.00,VWS V14.01,2013-03-23 11:48:00,
2013-03-23 07:53:00,37.5,29.3,29.96,SSW,192,0.0,0.0,72,0.00,,---,0.00,VWS V14.01,2013-03-23 11:53:00,
2013-03-23 07:58:00,37.7,29.5,29.96,SSW,192,0.0,0.0,72,0.00,,---,0.00,VWS V14.01,2013-03-23 11:58:00,
2013-03-23 08:03:00,38.1,28.8,29.97,SSW,192,0.0,0.0,69,0.00,,---,0.00,VWS V14.01,2013-03-23 12:03:00,
2013-03-23 08:09:00,38.5,28.9,29.97,SSW,192,0.0,1.0,68,0.00,,---,0.00,VWS V14.01,2013-03-23 12:09:00,
2013-03-23 08:14:00,38.8,28.8,29.97,SSW,192,0.0,0.0,67,0.00,,---,0.00,VWS V14.01,2013-03-23 12:14:00,
2013-03-23 08:19:00,39.0,28.2,29.97,SSW,192,0.0,0.0,65,0.00,,---,0.00,VWS V14.01,2013-03-23 12:19:00,
2013-03-23 08:24:00,39.2,27.7,29.97,SSW,192,0.0,0.0,63,0.00,,---,0.00,VWS V14.01,2013-03-23 12:24:00,
2013-03-23 08:29:00,39.3,26.6,29.98,SSW,192,0.0,0.0,60,0.00,,---,0.00,VWS V14.01,2013-03-23 12:29:00,
2013-03-23 08:34:00,39.6,27.3,29.98,SSW,192,0.0,0.0,61,0.00,,---,0.00,VWS V14.01,2013-03-23 12:34:00,
2013-03-23 08:39:00,39.7,27.4,29.98,SSW,192,0.0,1.0,61,0.00,,---,0.00,VWS V14.01,2013-03-23 12:39:00,
2013-03-23 08:44:00,39.9,27.2,29.98,SSW,192,0.0,0.0,60,0.00,,---,0.00,VWS V14.01,2013-03-23 12:44:00,
2013-03-23 08:49:00,40.0,27.2,29.98,SSW,192,0.0,0.0,60,0.00,,---,0.00,VWS V14.01,2013-03-23 12:49:00,
2013-03-23 08:54:00,40.2,27.0,29.98,SSW,192,0.0,0.0,59,0.00,,---,0.00,VWS V14.01,2013-03-23 12:54:00,
2013-03-23 08:59:00,40.3,27.9,29.97,SSW,192,0.0,1.0,61,0.00,,---,0.00,VWS V14.01,2013-03-23 12:59:00,
2013-03-23 09:04:00,40.3,27.1,29.97,SSW,192,0.0,0.0,59,0.00,,---,0.00,VWS V14.01,2013-03-23 13:04:00,
2013-03-23 09:09:00,40.3,26.7,29.97,SSW,192,0.0,1.0,58,0.00,,---,0.00,VWS V14.01,2013-03-23 13:09:00,
2013-03-23 09:15:00,40.4,27.2,29.98,SSW,192,0.0,0.0,59,0.00,,---,0.00,VWS V14.01,2013-03-23 13:15:00,
2013-03-23 09:20:00,40.3,27.1,29.98,SSW,192,0.0,0.0,59,0.00,,---,0.00,VWS V14.01,2013-03-23 13:20:00,
2013-03-23 09:25:00,40.4,26.4,29.98,SSW,192,0.0,0.0,57,0.00,,---,0.00,VWS V14.01,2013-03-23 13:25:00,
2013-03-23 09:30:00,40.6,27.0,29.99,SSW,192,0.0,0.0,58,0.00,,---,0.00,VWS V14.01,2013-03-23 13:30:00,
2013-03-23 09:35:00,41.0,27.4,29.99,SSW,192,0.0,0.0,58,0.00,,---,0.00,VWS V14.01,2013-03-23 13:35:00,
2013-03-23 09:40:00,41.2,26.7,29.99,SSW,192,0.0,0.0,56,0.00,,---,0.00,VWS V14.01,2013-03-23 13:40:00,
2013-03-23 09:45:00,41.3,27.2,30.00,SSW,192,0.0,1.0,57,0.00,,---,0.00,VWS V14.01,2013-03-23 13:45:00,
2013-03-23 09:50:00,41.4,26.9,30.00,SSW,192,0.0,0.0,56,0.00,,---,0.00,VWS V14.01,2013-03-23 13:50:00,
2013-03-23 09:55:00,41.6,26.6,30.00,SSW,192,0.0,0.0,55,0.00,,---,0.00,VWS V14.01,2013-03-23 13:55:00,
2013-03-23 10:00:00,41.9,27.4,29.99,SSW,192,0.0,1.0,56,0.00,,---,0.00,VWS V14.01,2013-03-23 14:00:00,
2013-03-23 10:05:00,42.0,27.0,29.99,SSW,192,0.0,2.0,55,0.00,,---,0.00,VWS V14.01,2013-03-23 14:05:00,
2013-03-23 10:10:00,42.4,26.5,29.99,SSW,192,1.0,2.0,53,0.00,,---,0.00,VWS V14.01,2013-03-23 14:10:00,
2013-03-23 10:16:00,42.5,27.0,29.99,SSW,192,0.0,3.0,54,0.00,,---,0.00,VWS V14.01,2013-03-23 14:16:00,
2013-03-23 10:21:00,42.6,26.2,29.99,ENE,78,1.0,2.0,52,0.00,,---,0.00,VWS V14.01,2013-03-23 14:21:00,
2013-03-23 10:27:00,42.8,25.9,29.99,ENE,73,1.0,3.0,51,0.00,,---,0.00,VWS V14.01,2013-03-23 14:27:00,
2013-03-23 10:32:00,42.8,25.5,29.99,ENE,57,0.0,4.0,50,0.00,,---,0.00,VWS V14.01,2013-03-23 14:32:00,
2013-03-23 10:37:00,43.1,25.3,29.99,ENE,57,1.0,4.0,49,0.00,,---,0.00,VWS V14.01,2013-03-23 14:37:00,
2013-03-23 10:42:00,43.2,25.8,29.99,ENE,57,0.0,2.0,50,0.00,,---,0.00,VWS V14.01,2013-03-23 14:42:00,
2013-03-23 10:47:00,43.2,25.4,29.99,ENE,57,0.0,2.0,49,0.00,,---,0.00,VWS V14.01,2013-03-23 14:47:00,
2013-03-23 10:52:00,43.5,25.6,29.99,ENE,57,0.0,2.0,49,0.00,,---,0.00,VWS V14.01,2013-03-23 14:52:00,
2013-03-23 10:57:00,43.6,25.2,29.99,ENE,57,0.0,2.0,48,0.00,,---,0.00,VWS V14.01,2013-03-23 14:57:00,
2013-03-23 11:02:00,43.9,25.5,30.00,ENE,57,0.0,1.0,48,0.00,,---,0.00,VWS V14.01,2013-03-23 15:02:00,
2013-03-23 11:07:00,44.0,25.1,30.00,ENE,57,0.0,2.0,47,0.00,,---,0.00,VWS V14.01,2013-03-23 15:07:00,
2013-03-23 11:12:00,44.1,24.7,30.00,ENE,57,2.0,2.0,46,0.00,,---,0.00,VWS V14.01,2013-03-23 15:12:00,
2013-03-23 11:17:00,44.2,24.2,30.00,ENE,57,0.0,3.0,45,0.00,,---,0.00,VWS V14.01,2013-03-23 15:17:00,
2013-03-23 11:22:00,44.3,24.8,30.00,ENE,57,0.0,1.0,46,0.00,,---,0.00,VWS V14.01,2013-03-23 15:22:00,
2013-03-23 11:27:00,44.4,24.4,30.00,ENE,57,1.0,1.0,45,0.00,,---,0.00,VWS V14.01,2013-03-23 15:27:00,
2013-03-23 11:32:00,44.6,25.1,29.99,ENE,59,1.0,3.0,46,0.00,,---,0.00,VWS V14.01,2013-03-23 15:32:00,
2013-03-23 11:37:00,44.8,25.3,29.99,East,94,3.0,4.0,46,0.00,,---,0.00,VWS V14.01,2013-03-23 15:37:00,
2013-03-23 11:43:00,44.9,24.3,29.99,East,94,1.0,3.0,44,0.00,,---,0.00,VWS V14.01,2013-03-23 15:43:00,
2013-03-23 11:48:00,45.0,24.4,29.99,East,95,2.0,3.0,44,0.00,,---,0.00,VWS V14.01,2013-03-23 15:48:00,
2013-03-23 11:53:00,45.1,25.6,29.99,East,95,0.0,2.0,46,0.00,,---,0.00,VWS V14.01,2013-03-23 15:53:00,
2013-03-23 11:58:00,45.4,23.1,29.99,SE,145,1.0,5.0,41,0.00,,---,0.00,VWS V14.01,2013-03-23 15:58:00,
2013-03-23 12:03:00,45.8,24.6,29.98,SE,138,1.0,2.0,43,0.00,,---,0.00,VWS V14.01,2013-03-23 16:03:00,
2013-03-23 12:08:00,46.5,24.7,29.98,SE,139,2.0,4.0,42,0.00,,---,0.00,VWS V14.01,2013-03-23 16:08:00,
2013-03-23 12:13:00,46.5,24.1,29.98,SE,137,0.0,1.0,41,0.00,,---,0.00,VWS V14.01,2013-03-23 16:13:00,
2013-03-23 12:18:00,47.5,21.9,29.97,SSE,151,4.0,6.0,36,0.00,,---,0.00,VWS V14.01,2013-03-23 16:18:00,
2013-03-23 12:23:00,47.6,20.6,29.97,ESE,117,2.0,4.0,34,0.00,,---,0.00,VWS V14.01,2013-03-23 16:23:00,
2013-03-23 12:28:00,47.8,21.5,29.97,ESE,103,3.0,5.0,35,0.00,,---,0.00,VWS V14.01,2013-03-23 16:28:00,
2013-03-23 12:33:00,47.5,23.2,29.97,SSW,193,0.0,4.0,38,0.00,,---,0.00,VWS V14.01,2013-03-23 16:33:00,
2013-03-23 12:38:00,47.6,21.3,29.97,ESE,102,0.0,4.0,35,0.00,,---,0.00,VWS V14.01,2013-03-23 16:38:00,
2013-03-23 12:43:00,47.6,20.6,29.97,South,175,3.0,3.0,34,0.00,,---,0.00,VWS V14.01,2013-03-23 16:43:00,
2013-03-23 12:49:00,48.4,27.0,29.97,South,177,1.0,3.0,43,0.00,,---,0.00,VWS V14.01,2013-03-23 16:49:00,
2013-03-23 12:54:00,48.4,21.3,29.97,South,175,2.0,2.0,34,0.00,,---,0.00,VWS V14.01,2013-03-23 16:54:00,
2013-03-23 12:59:00,48.1,21.8,29.96,South,183,0.0,5.0,35,0.00,,---,0.00,VWS V14.01,2013-03-23 16:59:00,
2013-03-23 13:04:00,48.0,20.3,29.96,SE,137,1.0,5.0,33,0.00,,---,0.00,VWS V14.01,2013-03-23 17:04:00,
2013-03-23 13:09:00,48.6,22.9,29.96,SSE,156,1.0,5.0,36,0.00,,---,0.00,VWS V14.01,2013-03-23 17:09:00,
2013-03-23 13:14:00,49.6,23.1,29.95,ESE,103,0.0,5.0,35,0.00,,---,0.00,VWS V14.01,2013-03-23 17:14:00,
2013-03-23 13:19:00,49.3,22.1,29.95,ESE,103,1.0,5.0,34,0.00,,---,0.00,VWS V14.01,2013-03-23 17:19:00,
2013-03-23 13:24:00,50.0,22.0,29.95,NE,34,0.0,3.0,33,0.00,,---,0.00,VWS V14.01,2013-03-23 17:24:00,
2013-03-23 13:29:00,50.3,23.0,29.95,ESE,122,0.0,5.0,34,0.00,,---,0.00,VWS V14.01,2013-03-23 17:29:00,
2013-03-23 13:34:00,49.2,22.0,29.95,ESE,118,1.0,5.0,34,0.00,,---,0.00,VWS V14.01,2013-03-23 17:34:00,
2013-03-23 13:39:00,50.1,22.8,29.95,NNE,32,1.0,5.0,34,0.00,,---,0.00,VWS V14.01,2013-03-23 17:39:00,
2013-03-23 13:44:00,51.6,25.5,29.94,NE,36,3.0,4.0,36,0.00,,---,0.00,VWS V14.01,2013-03-23 17:44:00,
2013-03-23 13:49:00,52.6,25.0,29.94,NNE,31,1.0,4.0,34,0.00,,---,0.00,VWS V14.01,2013-03-23 17:49:00,
2013-03-23 13:54:00,52.2,23.2,29.94,North,360,0.0,3.0,32,0.00,,---,0.00,VWS V14.01,2013-03-23 17:54:00,
2013-03-23 13:59:00,51.5,24.8,29.94,SE,144,2.0,3.0,35,0.00,,---,0.00,VWS V14.01,2013-03-23 17:59:00,
2013-03-23 14:04:00,50.5,23.9,29.94,ESE,115,0.0,4.0,35,0.00,,---,0.00,VWS V14.01,2013-03-23 18:04:00,
2013-03-23 14:09:00,51.2,24.5,29.94,ESE,105,2.0,4.0,35,0.00,,---,0.00,VWS V14.01,2013-03-23 18:09:00,
2013-03-23 14:14:00,51.4,25.4,29.93,ENE,77,3.0,4.0,36,0.00,,---,0.00,VWS V14.01,2013-03-23 18:14:00,
2013-03-23 14:19:00,51.2,25.2,29.93,ENE,75,0.0,4.0,36,0.00,,---,0.00,VWS V14.01,2013-03-23 18:19:00,
2013-03-23 14:24:00,51.1,25.8,29.93,ENE,75,0.0,2.0,37,0.00,,---,0.00,VWS V14.01,2013-03-23 18:24:00,
2013-03-23 14:30:00,50.9,25.6,29.92,ENE,76,0.0,2.0,37,0.00,,---,0.00,VWS V14.01,2013-03-23 18:30:00,
2013-03-23 14:35:00,51.4,27.3,29.92,WNW,299,2.0,4.0,39,0.00,,---,0.00,VWS V14.01,2013-03-23 18:35:00,
2013-03-23 14:40:00,51.3,25.9,29.92,South,188,1.0,4.0,37,0.00,,---,0.00,VWS V14.01,2013-03-23 18:40:00,
2013-03-23 14:45:00,51.7,27.6,29.92,NNW,346,2.0,5.0,39,0.00,,---,0.00,VWS V14.01,2013-03-23 18:45:00,
2013-03-23 14:50:00,52.3,30.5,29.92,NNW,346,0.0,5.0,43,0.00,,---,0.00,VWS V14.01,2013-03-23 18:50:00,
2013-03-23 14:55:00,53.2,30.1,29.92,West,273,3.0,4.0,41,0.00,,---,0.00,VWS V14.01,2013-03-23 18:55:00,
2013-03-23 15:00:00,52.8,27.9,29.91,South,171,3.0,3.0,38,0.00,,---,0.00,VWS V14.01,2013-03-23 19:00:00,
2013-03-23 15:05:00,51.6,28.1,29.91,South,172,0.0,5.0,40,0.00,,---,0.00,VWS V14.01,2013-03-23 19:05:00,
2013-03-23 15:10:00,51.8,27.6,29.91,South,188,0.0,0.0,39,0.00,,---,0.00,VWS V14.01,2013-03-23 19:10:00,
2013-03-23 15:15:00,52.3,27.5,29.90,SE,135,2.0,5.0,38,0.00,,---,0.00,VWS V14.01,2013-03-23 19:15:00,
2013-03-23 15:20:00,54.0,29.6,29.90,East,82,2.0,2.0,39,0.00,,---,0.00,VWS V14.01,2013-03-23 19:20:00,
2013-03-23 15:25:00,54.8,29.7,29.90,East,97,3.0,4.0,38,0.00,,---,0.00,VWS V14.01,2013-03-23 19:25:00,
2013-03-23 15:30:00,53.5,30.4,29.89,ENE,69,2.0,2.0,41,0.00,,---,0.00,VWS V14.01,2013-03-23 19:30:00,
2013-03-23 15:35:00,55.5,30.3,29.89,NE,40,0.0,4.0,38,0.00,,---,0.00,VWS V14.01,2013-03-23 19:35:00,
2013-03-23 15:40:00,54.6,28.2,29.89,ESE,116,0.0,2.0,36,0.00,,---,0.00,VWS V14.01,2013-03-23 19:40:00,
2013-03-23 15:45:00,53.2,28.3,29.90,SE,128,3.0,5.0,38,0.00,,---,0.00,VWS V14.01,2013-03-23 19:45:00,
2013-03-23 15:50:00,53.3,29.0,29.90,SE,136,0.0,2.0,39,0.00,,---,0.00,VWS V14.01,2013-03-23 19:50:00,
2013-03-23 15:56:00,53.0,29.3,29.90,South,183,1.0,3.0,40,0.00,,---,0.00,VWS V14.01,2013-03-23 19:56:00,
2013-03-23 16:01:00,53.6,29.9,29.89,SSE,150,4.0,6.0,40,0.00,,---,0.00,VWS V14.01,2013-03-23 20:01:00,
2013-03-23 16:06:00,53.1,29.4,29.89,SSW,205,0.0,7.0,40,0.00,,---,0.00,VWS V14.01,2013-03-23 20:06:00,
2013-03-23 16:11:00,53.2,30.7,29.89,South,186,2.0,3.0,42,0.00,,---,0.00,VWS V14.01,2013-03-23 20:11:00,
2013-03-23 16:16:00,53.6,30.5,29.89,South,180,2.0,4.0,41,0.00,,---,0.00,VWS V14.01,2013-03-23 20:16:00,
2013-03-23 16:21:00,54.0,32.0,29.89,SW,226,3.0,5.0,43,0.00,,---,0.00,VWS V14.01,2013-03-23 20:21:00,
2013-03-23 16:27:00,54.9,31.7,29.89,SSW,207,3.0,8.0,41,0.00,,---,0.00,VWS V14.01,2013-03-23 20:27:00,
2013-03-23 16:32:00,53.8,30.7,29.89,SSW,200,2.0,4.0,41,0.00,,---,0.00,VWS V14.01,2013-03-23 20:32:00,
2013-03-23 16:37:00,53.4,30.3,29.89,WSW,244,5.0,6.0,41,0.00,,---,0.00,VWS V14.01,2013-03-23 20:37:00,
2013-03-23 16:42:00,54.0,31.5,29.89,SE,142,4.0,4.0,42,0.00,,---,0.00,VWS V14.01,2013-03-23 20:42:00,
2013-03-23 16:47:00,54.3,31.1,29.87,SW,229,1.0,5.0,41,0.00,,---,0.00,VWS V14.01,2013-03-23 20:47:00,
2013-03-23 16:52:00,54.9,32.3,29.87,SSW,211,1.0,4.0,42,0.00,,---,0.00,VWS V14.01,2013-03-23 20:52:00,
2013-03-23 16:57:00,55.0,31.8,29.87,South,178,1.0,4.0,41,0.00,,---,0.00,VWS V14.01,2013-03-23 20:57:00,
2013-03-23 17:02:00,55.0,31.8,29.86,ESE,118,2.0,4.0,41,0.00,,---,0.00,VWS V14.01,2013-03-23 21:02:00,
2013-03-23 17:07:00,55.6,32.3,29.86,South,169,1.0,5.0,41,0.00,,---,0.00,VWS V14.01,2013-03-23 21:07:00,
2013-03-23 17:12:00,55.7,31.8,29.86,East,92,0.0,3.0,40,0.00,,---,0.00,VWS V14.01,2013-03-23 21:12:00,
2013-03-23 17:17:00,56.0,32.7,29.87,East,92,0.0,3.0,41,0.00,,---,0.00,VWS V14.01,2013-03-23 21:17:00,
2013-03-23 17:22:00,56.4,31.8,29.87,SE,135,4.0,4.0,39,0.00,,---,0.00,VWS V14.01,2013-03-23 21:22:00,
2013-03-23 17:27:00,55.9,32.0,29.87,ESE,107,2.0,4.0,40,0.00,,---,0.00,VWS V14.01,2013-03-23 21:27:00,
2013-03-23 17:32:00,56.1,32.7,29.86,ESE,107,0.0,3.0,41,0.00,,---,0.00,VWS V14.01,2013-03-23 21:32:00,
2013-03-23 17:37:00,56.8,31.5,29.86,ENE,71,1.0,4.0,38,0.00,,---,0.00,VWS V14.01,2013-03-23 21:37:00,
2013-03-23 17:42:00,55.6,31.7,29.86,ENE,73,2.0,2.0,40,0.00,,---,0.00,VWS V14.01,2013-03-23 21:42:00,
2013-03-23 17:47:00,55.0,31.8,29.86,ESE,114,2.0,5.0,41,0.00,,---,0.00,VWS V14.01,2013-03-23 21:47:00,
2013-03-23 17:52:00,55.4,32.1,29.86,ESE,107,0.0,1.0,41,0.00,,---,0.00,VWS V14.01,2013-03-23 21:52:00,
2013-03-23 17:57:00,55.7,32.4,29.86,ESE,112,2.0,4.0,41,0.00,,---,0.00,VWS V14.01,2013-03-23 21:57:00,
2013-03-23 18:02:00,55.6,31.7,29.85,ESE,102,1.0,2.0,40,0.00,,---,0.00,VWS V14.01,2013-03-23 22:02:00,
2013-03-23 18:07:00,55.6,31.7,29.85,East,94,0.0,4.0,40,0.00,,---,0.00,VWS V14.01,2013-03-23 22:07:00,
2013-03-23 18:12:00,55.2,31.9,29.85,East,94,0.0,1.0,41,0.00,,---,0.00,VWS V14.01,2013-03-23 22:12:00,
2013-03-23 18:18:00,55.3,32.6,29.85,East,94,0.0,1.0,42,0.00,,---,0.00,VWS V14.01,2013-03-23 22:18:00,
2013-03-23 18:23:00,55.4,31.5,29.85,East,94,0.0,3.0,40,0.00,,---,0.00,VWS V14.01,2013-03-23 22:23:00,
2013-03-23 18:28:00,55.0,32.3,29.85,East,94,0.0,3.0,42,0.00,,---,0.00,VWS V14.01,2013-03-23 22:28:00,
2013-03-23 18:33:00,54.9,31.7,29.84,East,94,0.0,1.0,41,0.00,,---,0.00,VWS V14.01,2013-03-23 22:33:00,
2013-03-23 18:38:00,54.8,32.8,29.84,East,94,0.0,1.0,43,0.00,,---,0.00,VWS V14.01,2013-03-23 22:38:00,
2013-03-23 18:43:00,55.0,32.9,29.84,East,94,2.0,2.0,43,0.00,,---,0.00,VWS V14.01,2013-03-23 22:43:00,
2013-03-23 18:48:00,54.9,32.3,29.85,East,94,0.0,2.0,42,0.00,,---,0.00,VWS V14.01,2013-03-23 22:48:00,
2013-03-23 18:53:00,54.8,32.2,29.85,East,94,0.0,1.0,42,0.00,,---,0.00,VWS V14.01,2013-03-23 22:53:00,
2013-03-23 18:58:00,54.4,33.5,29.85,East,94,0.0,1.0,45,0.00,,---,0.00,VWS V14.01,2013-03-23 22:58:00,
2013-03-23 19:03:00,53.9,32.5,29.85,East,94,0.0,0.0,44,0.00,,---,0.00,VWS V14.01,2013-03-23 23:03:00,
2013-03-23 19:08:00,53.6,32.2,29.85,East,94,0.0,1.0,44,0.00,,---,0.00,VWS V14.01,2013-03-23 23:08:00,
2013-03-23 19:13:00,53.3,33.1,29.85,East,94,0.0,0.0,46,0.00,,---,0.00,VWS V14.01,2013-03-23 23:13:00,
2013-03-23 19:18:00,52.5,32.9,29.86,East,94,0.0,0.0,47,0.00,,---,0.00,VWS V14.01,2013-03-23 23:18:00,
2013-03-23 19:23:00,51.9,33.4,29.86,East,94,0.0,0.0,49,0.00,,---,0.00,VWS V14.01,2013-03-23 23:23:00,
2013-03-23 19:28:00,51.1,33.1,29.86,East,94,0.0,0.0,50,0.00,,---,0.00,VWS V14.01,2013-03-23 23:28:00,
2013-03-23 19:33:00,50.6,32.7,29.86,East,94,0.0,0.0,50,0.00,,---,0.00,VWS V14.01,2013-03-23 23:33:00,
2013-03-23 19:38:00,50.5,33.1,29.86,East,94,0.0,0.0,51,0.00,,---,0.00,VWS V14.01,2013-03-23 23:38:00,
2013-03-23 19:43:00,49.8,32.9,29.86,East,94,0.0,0.0,52,0.00,,---,0.00,VWS V14.01,2013-03-23 23:43:00,
2013-03-23 19:49:00,49.3,32.9,29.87,East,94,0.0,0.0,53,0.00,,---,0.00,VWS V14.01,2013-03-23 23:49:00,
2013-03-23 19:54:00,48.8,32.4,29.87,East,94,0.0,0.0,53,0.00,,---,0.00,VWS V14.01,2013-03-23 23:54:00,
2013-03-23 19:59:00,48.7,32.8,29.87,East,94,0.0,0.0,54,0.00,,---,0.00,VWS V14.01,2013-03-23 23:59:00,
2013-03-23 20:04:00,48.2,33.3,29.87,East,94,0.0,0.0,56,0.00,,---,0.00,VWS V14.01,2013-03-24 00:04:00,
2013-03-23 20:09:00,47.9,33.0,29.87,East,94,0.0,0.0,56,0.00,,---,0.00,VWS V14.01,2013-03-24 00:09:00,
2013-03-23 20:14:00,47.7,32.3,29.87,East,94,0.0,0.0,55,0.00,,---,0.00,VWS V14.01,2013-03-24 00:14:00,
2013-03-23 20:19:00,47.6,32.2,29.87,East,94,0.0,0.0,55,0.00,,---,0.00,VWS V14.01,2013-03-24 00:19:00,
2013-03-23 20:24:00,47.4,33.0,29.87,East,94,0.0,0.0,57,0.00,,---,0.00,VWS V14.01,2013-03-24 00:24:00,
2013-03-23 20:29:00,47.5,31.7,29.87,East,94,0.0,0.0,54,0.00,,---,0.00,VWS V14.01,2013-03-24 00:29:00,
2013-03-23 20:34:00,47.4,32.1,29.87,East,94,0.0,0.0,55,0.00,,---,0.00,VWS V14.01,2013-03-24 00:34:00,
2013-03-23 20:39:00,47.1,32.7,29.87,East,94,0.0,0.0,57,0.00,,---,0.00,VWS V14.01,2013-03-24 00:39:00,
2013-03-23 20:44:00,46.7,32.3,29.87,East,94,0.0,0.0,57,0.00,,---,0.00,VWS V14.01,2013-03-24 00:44:00,
2013-03-23 20:49:00,46.3,32.8,29.87,East,94,0.0,0.0,59,0.00,,---,0.00,VWS V14.01,2013-03-24 00:49:00,
2013-03-23 20:55:00,46.2,32.2,29.87,East,94,0.0,0.0,58,0.00,,---,0.00,VWS V14.01,2013-03-24 00:55:00,
2013-03-23 21:00:00,46.5,31.7,29.88,East,94,0.0,0.0,56,0.00,,---,0.00,VWS V14.01,2013-03-24 01:00:00,
2013-03-23 21:05:00,46.6,31.8,29.88,East,94,0.0,0.0,56,0.00,,---,0.00,VWS V14.01,2013-03-24 01:05:00,
2013-03-23 21:10:00,46.1,32.6,29.88,East,94,0.0,0.0,59,0.00,,---,0.00,VWS V14.01,2013-03-24 01:10:00,
2013-03-23 21:15:00,45.8,32.3,29.89,East,94,0.0,0.0,59,0.00,,---,0.00,VWS V14.01,2013-03-24 01:15:00,
2013-03-23 21:20:00,45.5,32.4,29.89,East,94,0.0,0.0,60,0.00,,---,0.00,VWS V14.01,2013-03-24 01:20:00,
2013-03-23 21:25:00,45.8,31.9,29.89,East,94,0.0,0.0,58,0.00,,---,0.00,VWS V14.01,2013-03-24 01:25:00,
2013-03-23 21:30:00,45.6,32.9,29.89,East,94,0.0,0.0,61,0.00,,---,0.00,VWS V14.01,2013-03-24 01:30:00,
2013-03-23 21:35:00,45.3,32.7,29.89,East,94,0.0,0.0,61,0.00,,---,0.00,VWS V14.01,2013-03-24 01:35:00,
2013-03-23 21:40:00,45.3,32.7,29.89,East,94,0.0,0.0,61,0.00,,---,0.00,VWS V14.01,2013-03-24 01:40:00,
2013-03-23 21:45:00,45.4,32.8,29.89,East,94,0.0,0.0,61,0.00,,---,0.00,VWS V14.01,2013-03-24 01:45:00,
2013-03-23 21:50:00,45.3,32.7,29.89,East,94,0.0,0.0,61,0.00,,---,0.00,VWS V14.01,2013-03-24 01:50:00,
2013-03-23 21:55:00,45.2,32.6,29.89,East,94,0.0,0.0,61,0.00,,---,0.00,VWS V14.01,2013-03-24 01:55:00,
2013-03-23 22:00:00,45.0,32.4,29.89,East,94,0.0,0.0,61,0.00,,---,0.00,VWS V14.01,2013-03-24 02:00:00,
2013-03-23 22:05:00,44.7,32.5,29.89,East,94,0.0,0.0,62,0.00,,---,0.00,VWS V14.01,2013-03-24 02:05:00,
2013-03-23 22:10:00,44.3,32.5,29.89,East,94,0.0,0.0,63,0.00,,---,0.00,VWS V14.01,2013-03-24 02:10:00,
2013-03-23 22:15:00,44.0,32.6,29.89,East,94,0.0,0.0,64,0.00,,---,0.00,VWS V14.01,2013-03-24 02:15:00,
2013-03-23 22:21:00,44.0,32.6,29.89,East,94,0.0,0.0,64,0.00,,---,0.00,VWS V14.01,2013-03-24 02:21:00,
2013-03-23 22:26:00,43.8,32.4,29.89,East,94,0.0,0.0,64,0.00,,---,0.00,VWS V14.01,2013-03-24 02:26:00,
2013-03-23 22:31:00,43.7,32.3,29.89,East,94,0.0,0.0,64,0.00,,---,0.00,VWS V14.01,2013-03-24 02:31:00,
2013-03-23 22:36:00,43.8,32.4,29.89,East,94,0.0,0.0,64,0.00,,---,0.00,VWS V14.01,2013-03-24 02:36:00,
2013-03-23 22:41:00,44.0,32.6,29.89,East,94,0.0,0.0,64,0.00,,---,0.00,VWS V14.01,2013-03-24 02:41:00,
2013-03-23 22:46:00,43.7,33.1,29.88,East,94,0.0,0.0,66,0.00,,---,0.00,VWS V14.01,2013-03-24 02:46:00,
2013-03-23 22:52:00,43.4,32.8,29.88,East,94,0.0,0.0,66,0.00,,---,0.00,VWS V14.01,2013-03-24 02:52:00,
2013-03-23 22:57:00,43.5,32.5,29.88,East,94,0.0,0.0,65,0.00,,---,0.00,VWS V14.01,2013-03-24 02:57:00,
2013-03-23 23:02:00,43.9,32.5,29.87,East,94,0.0,0.0,64,0.00,,---,0.00,VWS V14.01,2013-03-24 03:02:00,
2013-03-23 23:07:00,44.1,32.7,29.87,East,94,0.0,0.0,64,0.00,,---,0.00,VWS V14.01,2013-03-24 03:07:00,
2013-03-23 23:12:00,44.2,32.4,29.87,East,94,0.0,0.0,63,0.00,,---,0.00,VWS V14.01,2013-03-24 03:12:00,
2013-03-23 23:17:00,44.3,32.1,29.87,East,94,0.0,0.0,62,0.00,,---,0.00,VWS V14.01,2013-03-24 03:17:00,
2013-03-23 23:22:00,44.3,32.1,29.87,East,94,0.0,0.0,62,0.00,,---,0.00,VWS V14.01,2013-03-24 03:22:00,
2013-03-23 23:27:00,44.3,32.1,29.87,East,94,0.0,0.0,62,0.00,,---,0.00,VWS V14.01,2013-03-24 03:27:00,
2013-03-23 23:32:00,43.8,32.0,29.85,East,94,0.0,0.0,63,0.00,,---,0.00,VWS V14.01,2013-03-24 03:32:00,
2013-03-23 23:37:00,43.2,32.6,29.85,East,94,0.0,1.0,66,0.00,,---,0.00,VWS V14.01,2013-03-24 03:37:00,
2013-03-23 23:42:00,42.6,32.4,29.85,East,94,0.0,0.0,67,0.00,,---,0.00,VWS V14.01,2013-03-24 03:42:00,
2013-03-23 23:47:00,42.4,32.6,29.85,East,94,0.0,1.0,68,0.00,,---,0.00,VWS V14.01,2013-03-24 03:47:00,
2013-03-23 23:53:00,42.1,32.3,29.85,East,94,0.0,0.0,68,0.00,,---,0.00,VWS V14.01,2013-03-24 03:53:00,
2013-03-23 23:58:00,41.7,31.9,29.85,East,94,0.0,1.0,68,0.00,,---,0.00,VWS V14.01,2013-03-24 03:58:00,